This is the latest recevied weather packets stored in our database for station/object HI3LT-13. If no packets are shown the sender has not sent any weather packets the latest 10 day(s).
| Time | Temp. | Humidity | Pressure | Rain* | Wind** | Luminosity | Snow |
|---|---|---|---|---|---|---|---|
| 1787941744 | 34.44° C | 48% | 1014 hPa | 0 mm | - | - | - |
| 1787941143 | 34.44° C | 48% | 1014 hPa | 0 mm | - | - | - |
| 1787940542 | 35.56° C | 41% | 1014 hPa | 0 mm | - | - | - |
| 1787939942 | 34.44° C | 48% | 1014 hPa | 0 mm | - | - | - |
| 1787939341 | 34.44° C | 48% | 1014 hPa | 0 mm | - | - | - |
| 1787938740 | 33.33° C | 51% | 1014 hPa | 0 mm | - | - | - |
| 1787938140 | 33.33° C | 52% | 1015 hPa | 0 mm | - | - | - |
| 1787937539 | 33.33° C | 52% | 1015 hPa | 0 mm | - | - | - |
| 1787936938 | 33.33° C | 49% | 1015 hPa | 0 mm | - | - | - |
| 1787936338 | 33.33° C | 52% | 1015 hPa | 0 mm | - | - | - |
| 1787935738 | 32.78° C | 54% | 1015 hPa | 0 mm | - | - | - |
| 1787935137 | 32.22° C | 58% | 1015 hPa | 0 mm | - | - | - |
| 1787934536 | 31.67° C | 56% | 1015 hPa | 0 mm | - | - | - |
| 1787933936 | 31.67° C | 58% | 1015 hPa | 0 mm | - | - | - |
| 1787933335 | 31.67° C | 58% | 1015 hPa | 0 mm | - | - | - |
| 1787932735 | 31.11° C | 60% | 1015 hPa | 0 mm | - | - | - |
| 1787932134 | 31.11° C | 60% | 1015 hPa | 0 mm | - | - | - |
| 1787931533 | 31.11° C | 62% | 1015 hPa | 0 mm | - | - | - |
| 1787930933 | 30.56° C | 64% | 1016 hPa | 0 mm | - | - | - |
| 1787930332 | 30.56° C | 66% | 1016 hPa | 0 mm | - | - | - |
| 1787929732 | 30.56° C | 71% | 1016 hPa | 0 mm | - | - | - |
| 1787929131 | 30° C | 68% | 1016 hPa | 0 mm | - | - | - |
| 1787928530 | 30.56° C | 68% | 1016 hPa | 0 mm | - | - | - |
| 1787927930 | 30.56° C | 69% | 1016 hPa | 0 mm | - | - | - |
| 1787927329 | 30.56° C | 70% | 1016 hPa | 0 mm | - | - | - |
* Rain latest hour (hover to see other rain measurements)
** Current wind speed in m/s (hover to see current wind gust speed)